Zurück zum Katalog

STARLINK-35858

AktivKommunikationVLEO
NORAD 66833·PAYLOAD·🇺🇸 United States

Gestartet Dec 2, 2025 von Vandenberg Space Force Base

Loading…

Nächste Überflüge (nächste 24 Stunden)

TLE

AktuellSource: CelesTrak SupGP

Epoche: Sep 15, 2026, 03:59 UTC

1 66833C 25280N   26258.16645833 -.00000567  00000+0 -47539-4 0  2581
2 66833  70.0012 216.6788 0003374 270.1581 268.6376 14.98327030    13

Verfolge STARLINK-35858 in Echtzeit mit AllMySat

Download on the App Store